Location: Newark
(51.8900°N, 2.0780°W)
Time: 08:28:39
(UTC+00:00)

Envisat - Pass Details

Date: 24 November 2019
Orbit: 764 x 766 km, 98.1° (Epoch: 11 December)

Event Time Altitude Azimuth Distance (km) Brightness Sun altitude
Rises 19:11:48 0° 204° (SSW) 3,222 6.5 -27.8°
Reaches altitude 10° 19:14:36 10° 219° (SW) 2,301 5.9 -28.3°
Maximum altitude 19:18:30 22° 270° (W) 1,628 5.4 -28.9°
Drops below altitude 10° 19:22:26 10° 321° (NW) 2,314 6.0 -29.5°
Sets 19:25:16 0° 336° (NNW) 3,245 6.6 -29.9°
